GW6952 Weather Reports


time (UTC)temp
C
wind
direction
speed
KPH
gust
KPH
rain 1hr
cm
rain 24hr
cm
rain mn
cm
humidity
%
barometer
mb
20260503175516 15 315 1.6 4.8 0.00 0.00 0.00 51 1013.8
20260503174516 15 315 3.2 6.4 0.00 0.00 0.00 51 1013.8
20260503173516 15 270 1.6 6.4 0.00 0.00 0.00 52 1013.7
20260503172536 15 293 1.6 4.8 0.00 0.00 0.00 52 1013.7
20260503171516 15 158 1.6 4.8 0.00 0.00 0.00 53 1013.7
20260503170516 15 180 3.2 6.4 0.00 0.00 0.00 53 1013.6
20260503150516 12 0.0 0.0 0.00 0.00 0.00 63 1013.5
20260503130515 12 0.0 3.2 0.00 0.00 0.00 61 1011.9
20260503110517 12 338 1.6 3.2 0.00 0.00 0.00 60 1011.9
20260503081536 12 338 4.8 9.7 0.00 0.00 0.00 60 1012.3
20260503080516 12 293 1.6 4.8 0.00 0.00 0.00 60 1012.5
20260503072517 12 338 6.4 11.3 0.00 0.00 0.00 60 1012.5
20260503071516 12 315 4.8 12.9 0.00 0.00 0.00 59 1012.6
20260503070516 12 338 3.2 9.7 0.00 0.00 0.00 60 1012.6
20260503054516 13 338 6.4 14.5 0.00 0.00 0.00 60 1012.8
20260503053636 13 338 6.4 12.9 0.00 0.00 0.00 60 1012.8
20260503052515 13 338 6.4 12.9 0.00 0.00 0.00 60 1012.9
20260503051556 13 338 6.4 12.9 0.00 0.00 0.00 60 1012.9
20260503050515 13 338 6.4 11.3 0.00 0.00 0.00 60 1013.0
20260503045516 13 338 8.0 14.5 0.00 0.00 0.00 60 1012.9
20260503044516 13 338 6.4 12.9 0.00 0.00 0.00 59 1012.7
20260503043535 13 338 8.0 14.5 0.00 0.00 0.00 59 1012.7
20260503042515 13 315 6.4 12.9 0.00 0.00 0.00 59 1012.7
20260503041535 13 315 6.4 12.9 0.00 0.00 0.00 59 1012.5
20260503040516 13 315 6.4 12.9 0.00 0.00 0.00 59 1012.4
20260503035516 13 315 4.8 11.3 0.00 0.00 0.00 59 1012.3
20260503034515 13 315 6.4 12.9 0.00 0.00 0.00 59 1012.1
20260503033516 13 315 6.4 16.1 0.00 0.00 0.00 59 1012.1
20260503032536 13 338 9.7 19.3 0.00 0.00 0.00 59 1012.1
20260503031516 13 315 6.4 12.9 0.00 0.00 0.00 59 1011.9
20260503030515 14 338 9.7 17.7 0.00 0.00 0.00 58 1011.8
20260503025515 14 315 4.8 16.1 0.00 0.00 0.00 58 1011.7
20260503024515 14 338 9.7 19.3 0.00 0.00 0.00 58 1011.5
20260503023555 14 338 6.4 14.5 0.00 0.00 0.00 57 1011.5
20260503022535 15 315 8.0 17.7 0.00 0.00 0.00 57 1011.3
20260503021515 15 338 9.7 19.3 0.00 0.00 0.00 57 1011.3
20260503020515 15 338 11.3 20.9 0.00 0.00 0.00 56 1011.4
20260503015515 15 338 11.3 20.9 0.00 0.00 0.00 56 1011.4
20260503014515 16 338 9.7 17.7 0.00 0.00 0.00 55 1011.5
20260503013517 16 338 9.7 17.7 0.00 0.00 0.00 55 1011.4
20260503012517 16 338 11.3 17.7 0.00 0.00 0.00 54 1011.4
20260503011517 16 338 14.5 24.1 0.00 0.00 0.00 53 1011.4
20260503010517 17 338 9.7 19.3 0.00 0.00 0.00 53 1011.4
20260503005517 17 338 12.9 17.7 0.00 0.00 0.00 52 1011.4
20260503004517 18 338 9.7 17.7 0.00 0.00 0.00 51 1011.5
20260503003517 18 338 14.5 22.5 0.00 0.00 0.00 50 1011.3
20260503002517 18 338 11.3 17.7 0.00 0.00 0.00 49 1011.4
20260503001517 19 315 9.7 17.7 0.00 0.00 0.00 48 1011.3
20260503000517 20 338 9.7 19.3 0.00 0.00 0.00 48 1011.4
20260502235517 19 338 11.3 20.9 0.00 0.00 0.00 49 1011.3
20260502234537 20 338 12.9 19.3 0.00 0.00 0.00 47 1011.4
20260502233537 20 338 12.9 19.3 0.00 0.00 0.00 47 1011.3
20260502232537 20 338 11.3 22.5 0.00 0.00 0.00 46 1011.3
20260502231517 20 338 14.5 24.1 0.00 0.00 0.00 46 1011.3
20260502230517 21 0 9.7 19.3 0.00 0.00 0.00 44 1011.6
20260502225517 22 0 4.8 14.5 0.00 0.00 0.00 43 1011.6
20260502224517 22 338 9.7 17.7 0.00 0.00 0.00 43 1011.7
20260502223517 22 113 4.8 8.0 0.00 0.00 0.00 43 1011.9
20260502222517 22 270 3.2 4.8 0.00 0.00 0.00 44 1012.0
20260502221537 21 315 1.6 4.8 0.00 0.00 0.00 47 1012.2
20260502220516 21 135 4.8 12.9 0.00 0.00 0.00 46 1012.3
20260502215517 21 90 3.2 11.3 0.00 0.00 0.00 47 1012.4
20260502214556 20 180 3.2 8.0 0.00 0.00 0.00 46 1012.5
20260502213517 20 225 3.2 12.9 0.00 0.00 0.00 47 1012.5
20260502212517 20 180 3.2 9.7 0.00 0.00 0.00 48 1012.5
20260502211517 20 135 3.2 11.3 0.00 0.00 0.00 47 1012.7
20260502210516 19 135 4.8 11.3 0.00 0.00 0.00 49 1012.9
20260502205516 18 90 4.8 12.9 0.00 0.00 0.00 49 1013.2
20260502204516 18 135 4.8 16.1 0.00 0.00 0.00 49 1013.6
20260502203516 18 113 6.4 17.7 0.00 0.00 0.00 50 1013.7
20260502202516 18 23 8.0 14.5 0.00 0.00 0.00 50 1013.8
20260502201517 18 135 9.7 17.7 0.00 0.00 0.00 49 1014.0
20260502200517 18 23 4.8 9.7 0.00 0.00 0.00 49 1014.1
20260502195516 18 113 6.4 17.7 0.00 0.00 0.00 51 1014.2
20260502194517 17 113 3.2 9.7 0.00 0.00 0.00 52 1014.3
20260502193516 17 158 6.4 14.5 0.00 0.00 0.00 53 1014.4
20260502192517 16 113 4.8 9.7 0.00 0.00 0.00 53 1014.4
20260502191516 16 113 3.2 9.7 0.00 0.00 0.00 54 1014.5
20260502190536 15 45 3.2 9.7 0.00 0.00 0.00 54 1014.5
20260502185516 15 158 6.4 17.7 0.00 0.00 0.00 54 1014.5
20260502184516 15 158 4.8 11.3 0.00 0.00 0.00 54 1014.6
20260502183516 15 0.0 3.2 0.00 0.00 0.00 55 1014.7
20260502182516 15 225 1.6 6.4 0.00 0.00 0.00 55 1014.7
20260502181516 15 225 1.6 4.8 0.00 0.00 0.00 56 1014.8
20260502180516 14 0.0 3.2 0.00 0.00 0.00 57 1014.8